TimeCDT,TemperatureF,Dew PointF,Humidity,Sea Level PressureIn,VisibilityMPH,Wind Direction,Wind SpeedMPH,Gust SpeedMPH,PrecipitationIn,Events,Conditions,WindDirDegrees,DateUTC
12:15 AM,37.4,32.0,81,29.94,10.0,Calm,Calm,-,N/A,,Overcast,0,2012-10-15 05:15:00
12:35 AM,37.4,32.0,81,29.94,10.0,SSW,3.5,-,N/A,,Mostly Cloudy,210,2012-10-15 05:35:00
12:55 AM,37.4,32.0,81,29.94,10.0,SSW,6.9,-,N/A,,Partly Cloudy,210,2012-10-15 05:55:00
1:15 AM,35.6,32.0,87,29.94,10.0,South,5.8,-,N/A,,Clear,190,2012-10-15 06:15:00
1:35 AM,35.6,32.0,87,29.94,8.0,South,4.6,-,N/A,,Clear,190,2012-10-15 06:35:00
1:55 AM,33.8,32.0,93,29.93,10.0,Calm,Calm,-,N/A,,Clear,0,2012-10-15 06:55:00
2:15 AM,32.0,30.2,93,29.94,10.0,SSW,3.5,-,N/A,,Clear,210,2012-10-15 07:15:00
2:35 AM,32.0,30.2,93,29.93,10.0,SSW,3.5,-,N/A,,Clear,200,2012-10-15 07:35:00
2:55 AM,32.0,32.0,100,29.93,10.0,SW,3.5,-,N/A,,Clear,220,2012-10-15 07:55:00
3:15 AM,32.0,32.0,100,29.92,10.0,South,3.5,-,N/A,,Clear,180,2012-10-15 08:15:00
3:35 AM,32.0,30.2,93,29.91,10.0,SSE,5.8,-,N/A,,Clear,160,2012-10-15 08:35:00
3:55 AM,32.0,32.0,100,29.90,10.0,South,6.9,-,N/A,,Clear,180,2012-10-15 08:55:00
4:15 AM,32.0,32.0,100,29.89,10.0,South,4.6,-,N/A,,Clear,170,2012-10-15 09:15:00
4:35 AM,30.2,30.2,100,29.89,10.0,South,4.6,-,N/A,,Clear,180,2012-10-15 09:35:00
4:55 AM,30.2,30.2,100,29.90,10.0,South,4.6,-,N/A,,Clear,190,2012-10-15 09:55:00
5:15 AM,30.2,30.2,100,29.89,10.0,SSE,4.6,-,N/A,,Clear,150,2012-10-15 10:15:00
5:35 AM,28.4,28.4,100,29.88,10.0,SE,6.9,-,N/A,,Clear,140,2012-10-15 10:35:00
5:55 AM,28.4,28.4,100,29.88,5.0,SSE,5.8,-,N/A,,Mist,150,2012-10-15 10:55:00
6:15 AM,30.2,30.2,100,29.88,10.0,South,6.9,-,N/A,,Unknown,170,2012-10-15 11:15:00
6:35 AM,32.0,32.0,100,29.87,5.0,SSE,8.1,-,N/A,,Mist,160,2012-10-15 11:35:00
6:55 AM,32.0,32.0,100,29.87,5.0,SSE,6.9,-,N/A,,Unknown,160,2012-10-15 11:55:00
7:15 AM,32.0,32.0,100,29.87,9.0,South,5.8,-,N/A,,Unknown,170,2012-10-15 12:15:00
7:35 AM,33.8,32.0,93,29.86,9.0,South,6.9,-,N/A,,Unknown,170,2012-10-15 12:35:00
7:55 AM,35.6,33.8,93,29.87,8.0,South,5.8,-,N/A,,Unknown,170,2012-10-15 12:55:00
8:15 AM,35.6,33.8,93,29.87,5.0,South,6.9,-,N/A,,Mist,170,2012-10-15 13:15:00
8:35 AM,37.4,33.8,87,29.87,8.0,South,6.9,-,N/A,Rain,Light Rain,180,2012-10-15 13:35:00
8:55 AM,37.4,35.6,93,29.86,3.0,SSE,6.9,-,N/A,,Mostly Cloudy,160,2012-10-15 13:55:00
9:15 AM,39.2,35.6,87,29.87,3.0,SSE,5.8,-,N/A,Rain,Light Rain,160,2012-10-15 14:15:00
9:35 AM,39.2,37.4,93,29.86,4.0,SSE,6.9,-,N/A,Rain,Light Rain,160,2012-10-15 14:35:00
9:55 AM,41.0,37.4,87,29.85,4.0,SSE,10.4,-,N/A,,Partly Cloudy,150,2012-10-15 14:55:00
10:15 AM,44.6,37.4,76,29.84,3.0,SSE,11.5,-,N/A,,Haze,160,2012-10-15 15:15:00
10:55 AM,50.0,37.4,62,29.81,3.0,South,18.4,-,N/A,,Haze,170,2012-10-15 15:55:00
11:15 AM,53.6,37.4,54,29.81,4.0,South,16.1,24.2,N/A,,Haze,170,2012-10-15 16:15:00
11:35 AM,55.4,37.4,51,29.80,4.0,South,17.3,25.3,N/A,,Haze,170,2012-10-15 16:35:00
11:55 AM,57.2,37.4,48,29.79,3.0,South,19.6,25.3,N/A,,Haze,170,2012-10-15 16:55:00
12:15 PM,59.0,37.4,45,29.78,3.0,South,20.7,24.2,N/A,,Haze,170,2012-10-15 17:15:00
12:35 PM,62.6,37.4,39,29.77,3.0,South,19.6,25.3,N/A,,Haze,170,2012-10-15 17:35:00
12:55 PM,62.6,37.4,39,29.76,4.0,SSE,20.7,-,N/A,,Haze,150,2012-10-15 17:55:00
1:15 PM,64.4,37.4,37,29.74,4.0,SSE,19.6,25.3,N/A,,Haze,160,2012-10-15 18:15:00
1:35 PM,66.2,37.4,35,29.73,3.0,South,23.0,-,N/A,,Haze,170,2012-10-15 18:35:00
1:55 PM,66.2,37.4,35,29.72,3.0,South,17.3,23.0,N/A,,Haze,170,2012-10-15 18:55:00
2:15 PM,66.2,37.4,35,29.70,3.0,South,18.4,23.0,N/A,,Haze,180,2012-10-15 19:15:00
2:35 PM,68.0,37.4,33,29.69,5.0,South,19.6,-,N/A,,Haze,170,2012-10-15 19:35:00
2:55 PM,71.6,37.4,29,29.67,4.0,South,23.0,28.8,N/A,,Haze,180,2012-10-15 19:55:00
3:15 PM,69.8,37.4,31,29.66,3.0,South,20.7,28.8,N/A,,Haze,170,2012-10-15 20:15:00
3:35 PM,71.6,37.4,29,29.65,5.0,South,20.7,31.1,N/A,,Haze,190,2012-10-15 20:35:00
3:55 PM,71.6,37.4,29,29.65,9.0,South,20.7,24.2,N/A,,Clear,190,2012-10-15 20:55:00
4:15 PM,71.6,37.4,29,29.64,10.0,South,20.7,24.2,N/A,,Clear,190,2012-10-15 21:15:00
4:35 PM,71.6,37.4,29,29.64,9.0,South,20.7,24.2,N/A,,Clear,190,2012-10-15 21:35:00
4:55 PM,71.6,37.4,29,29.63,9.0,South,20.7,-,N/A,,Clear,180,2012-10-15 21:55:00
5:15 PM,71.6,37.4,29,29.62,9.0,South,19.6,-,N/A,,Clear,180,2012-10-15 22:15:00
5:35 PM,71.6,37.4,29,29.62,10.0,South,17.3,-,N/A,,Clear,180,2012-10-15 22:35:00
5:55 PM,68.0,37.4,33,29.61,10.0,South,13.8,-,N/A,,Clear,180,2012-10-15 22:55:00
6:15 PM,68.0,37.4,33,29.61,10.0,South,12.7,-,N/A,,Clear,170,2012-10-15 23:15:00
6:35 PM,66.2,37.4,35,29.61,10.0,South,11.5,-,N/A,,Clear,170,2012-10-15 23:35:00
6:55 PM,64.4,37.4,37,29.60,10.0,South,9.2,-,N/A,,Partly Cloudy,170,2012-10-15 23:55:00
7:15 PM,62.6,37.4,39,29.60,10.0,SSE,10.4,-,N/A,,Partly Cloudy,160,2012-10-16 00:15:00
7:35 PM,60.8,37.4,42,29.60,10.0,SSE,9.2,-,N/A,,Clear,160,2012-10-16 00:35:00
7:55 PM,60.8,37.4,42,29.60,10.0,SSE,10.4,-,N/A,,Scattered Clouds,160,2012-10-16 00:55:00
8:15 PM,60.8,37.4,42,29.60,10.0,SSE,8.1,-,N/A,,Scattered Clouds,160,2012-10-16 01:15:00
8:35 PM,62.6,37.4,39,29.60,10.0,South,11.5,-,N/A,,Overcast,170,2012-10-16 01:35:00
8:55 PM,64.4,37.4,37,29.59,10.0,South,15.0,-,N/A,,Mostly Cloudy,190,2012-10-16 01:55:00
9:15 PM,62.6,37.4,39,29.60,10.0,South,12.7,-,N/A,,Mostly Cloudy,190,2012-10-16 02:15:00
9:35 PM,62.6,37.4,39,29.60,10.0,SSW,12.7,-,N/A,,Overcast,200,2012-10-16 02:35:00
9:55 PM,62.6,37.4,39,29.60,10.0,SW,13.8,18.4,N/A,,Overcast,230,2012-10-16 02:55:00
10:15 PM,66.2,39.2,37,29.60,10.0,WSW,19.6,26.5,N/A,,Overcast,250,2012-10-16 03:15:00
10:35 PM,68.0,41.0,37,29.60,10.0,West,21.9,29.9,N/A,,Mostly Cloudy,260,2012-10-16 03:35:00
10:55 PM,68.0,41.0,37,29.61,10.0,West,15.0,23.0,N/A,,Mostly Cloudy,270,2012-10-16 03:55:00
11:15 PM,66.2,42.8,43,29.61,10.0,West,16.1,20.7,N/A,,Mostly Cloudy,260,2012-10-16 04:15:00
11:35 PM,66.2,42.8,43,29.60,10.0,WSW,10.4,-,N/A,,Mostly Cloudy,250,2012-10-16 04:35:00
11:55 PM,64.4,41.0,42,29.60,10.0,West,9.2,-,N/A,,Mostly Cloudy,270,2012-10-16 04:55:00